Simultaneous Nadir Overpasses (SNOs) Predictions

Prediction of SNOs between GOES-15 and TERRA Satellite Orbit:

Table of predicted SNOs for the next 14.0 days since TLE Epoch: 9/8/2018
Index Date Time (GOES-15) GOES-15 Lat,Lon TERRA Lat,Lon Distance(km) Time Diff (sec)
1 09/09/2018 07:19:58 0.28,-135.16 0.92,-132.16 340.85 80
2 09/09/2018 19:38:34 -0.30,-135.24 0.14,-137.32 237.23 80
3 09/11/2018 19:29:02 -0.30,-135.31 -0.49,-134.37 106.94 80
4 09/12/2018 07:50:25 0.32,-135.27 -0.61,-139.56 487.95 80
5 09/13/2018 19:16:50 -0.29,-135.38 -1.13,-131.41 450.85 80
6 09/14/2018 07:35:34 0.31,-135.34 0.03,-136.60 144.33 80
7 09/16/2018 07:26:02 0.31,-135.40 0.68,-133.65 198.78 80
8 09/16/2018 19:44:37 -0.32,-135.46 0.38,-138.81 380.80 80
9 09/18/2018 19:32:25 -0.32,-135.52 -0.26,-135.86 38.29 80
10 09/20/2018 19:22:52 -0.31,-135.57 -0.85,-132.89 303.74 80
11 09/21/2018 07:44:16 0.33,-135.53 -0.24,-138.08 290.55 80




NCC Satellite Simultaneous Nadir Overpasses (SNOs) Prediction Service
